Location: Erfurt
(50.9688°N, 11.0193°E)
Time: 04:30:24
(UTC+01:00)

ISS - Pass Details

Date: 04 January 2018
Orbit: 401 x 406 km, 51.6° (Epoch: 17 January)

Event Time Altitude Azimuth Distance (km) Brightness Sun altitude
Exits shadow 06:56:02 20° 274° (W) 1,004 -2.4 -12.2°
Maximum altitude 06:58:10 77° 358° (N) 422 -3.9 -11.9°
Drops below altitude 10° 07:01:28 10° 86° (E) 1,470 0.1 -11.4°
Sets 07:03:33 0° 87° (E) 2,331 1.3 -11.1°
